Location: �quirre
(50.4736°N, 2.2351°E)
Time: 16:36:06
(UTC+00:00)

USA 229 DEB - Pass Details

Date: 07 August 2020
Orbit: 974 x 1238 km, 63.4° (Epoch: 17 September)

Event Time Altitude Azimuth Distance (km) Brightness Sun altitude
Exits shadow 02:48:35 14° 194° (SSW) 2,492 5.1 -13.3°
Maximum altitude 02:54:03 52° 122° (ESE) 1,262 4.2 -12.7°
Drops below altitude 10° 03:00:39 10° 49° (NE) 2,923 7.5 -12.0°
Sets 03:03:27 0° 45° (NE) 3,924 8.9 -11.7°
